Kezdőlap
METAR-TAF:

METAR-TAF

Repülőterek :

Wahoo, Nebraska, Amerikai Egyesült Államok

földrajzi szélesség: 41-14-26N, földrajzi hosszúság: 096-35-40W, magasság: 373 m

Jelenlegi meteorológiai megfigyelések

A jelentés 25 perccel ezelõtt készült, 12:55 UTC
Északkeleti szél 7 kt
Hőmérséklet 2°C
Páratartalom 93%
Légköri nyomás 1027 hPa
Látótávolság: 16.1 km
Borult 700 lábon

METAR: KAHQ 041255Z AUTO 05007KT 10SM OVC007 02/01 A3034 RMK AO2 T00150013

Idő: 07:20 (13:20 UTC)


TAF: hiányzik

Meteorológiai megfigyelések és előrejelzések több, mint 4000 repülőtéren (METAR és TAF jelentéseket).

A térképen piros és sárga pontok jelzik az elérhető meteorológiai állomásokat.

Mozgassa az egeret a pont fölött, hogy megjelenjen az állomás neve.

Azután kattintson az időjárási megfigyelések és előrejelzések megtekintéséhez.

A térkép megváltoztatása: kattintson a fekete keresztel jelölt zöld gombra ráközelítéshez, a vonallal jelölt zöld gombra távolításhoz, vagy a zöld nyilakra a szomszédos térképek eléréséhez.


METAR-TAF: